Time,TemperatureF,DewpointF,PressureIn,WindDirection,WindDirectionDegrees,WindSpeedMPH,WindSpeedGustMPH,Humidity,HourlyPrecipIn,Conditions,Clouds,dailyrainin,SolarRadiationWatts/m^2,SoftwareType,DateUTC
2013-12-19 00:00:00,41.1,23.0,30.06,SW,223,7.0,15.0,48,0.00,,,0.05,0,weatherlink.com 1.10,2013-12-19 05:00:00,
2013-12-19 00:15:00,41.1,24.0,30.06,SSW,201,9.0,19.0,50,0.00,,,0.05,0,weatherlink.com 1.10,2013-12-19 05:15:00,
2013-12-19 00:30:00,41.2,24.0,30.06,SW,233,6.0,19.0,50,0.00,,,0.05,0,weatherlink.com 1.10,2013-12-19 05:30:00,
2013-12-19 00:45:00,41.1,24.0,30.07,SW,232,7.0,19.0,51,0.00,,,0.05,0,weatherlink.com 1.10,2013-12-19 05:45:00,
2013-12-19 01:00:00,41.3,24.0,30.06,South,189,13.0,18.0,51,0.00,,,0.05,0,weatherlink.com 1.10,2013-12-19 06:00:00,
2013-12-19 01:15:00,41.1,25.0,30.06,SW,225,4.0,19.0,54,0.00,,,0.05,0,weatherlink.com 1.10,2013-12-19 06:15:00,
2013-12-19 01:30:00,41.1,25.0,30.06,SSW,211,8.0,19.0,54,0.00,,,0.05,0,weatherlink.com 1.10,2013-12-19 06:30:00,
2013-12-19 01:45:00,40.7,26.0,30.05,SW,219,7.0,19.0,56,0.00,,,0.05,0,weatherlink.com 1.10,2013-12-19 06:45:00,
2013-12-19 02:00:00,40.8,26.0,30.05,SSW,202,9.0,13.0,57,0.01,,,0.06,0,weatherlink.com 1.10,2013-12-19 07:00:00,
2013-12-19 02:15:00,41.0,27.0,30.05,WSW,242,7.0,16.0,57,0.01,,,0.06,0,weatherlink.com 1.10,2013-12-19 07:15:00,
2013-12-19 02:30:00,41.2,27.0,30.06,WSW,247,10.0,18.0,58,0.01,,,0.06,0,weatherlink.com 1.10,2013-12-19 07:30:00,
2013-12-19 03:00:00,41.1,28.0,30.06,South,182,4.0,15.0,60,0.00,,,0.06,0,weatherlink.com 1.10,2013-12-19 08:00:00,
2013-12-19 03:15:00,41.3,29.0,30.07,SW,217,5.0,15.0,61,0.00,,,0.06,0,weatherlink.com 1.10,2013-12-19 08:15:00,
2013-12-19 03:30:00,41.0,29.0,30.07,SW,234,8.0,14.0,62,0.00,,,0.06,0,weatherlink.com 1.10,2013-12-19 08:30:00,
2013-12-19 03:45:00,41.2,29.0,30.07,South,174,6.0,22.0,62,0.01,,,0.07,0,weatherlink.com 1.10,2013-12-19 08:45:00,
2013-12-19 04:00:00,41.0,29.0,30.07,West,274,7.0,16.0,63,0.01,,,0.07,0,weatherlink.com 1.10,2013-12-19 09:00:00,
2013-12-19 04:15:00,40.8,29.0,30.07,SSW,210,6.0,13.0,64,0.01,,,0.07,0,weatherlink.com 1.10,2013-12-19 09:15:00,
2013-12-19 04:30:00,41.4,30.0,30.06,WSW,246,5.0,15.0,64,0.01,,,0.07,0,weatherlink.com 1.10,2013-12-19 09:30:00,
2013-12-19 04:45:00,41.4,30.0,30.06,SSW,210,5.0,15.0,65,0.00,,,0.07,0,weatherlink.com 1.10,2013-12-19 09:45:00,
2013-12-19 05:00:00,41.5,30.0,30.06,SW,222,6.0,16.0,65,0.00,,,0.07,0,weatherlink.com 1.10,2013-12-19 10:00:00,
2013-12-19 05:15:00,41.5,31.0,30.06,SW,227,16.0,16.0,66,0.01,,,0.08,0,weatherlink.com 1.10,2013-12-19 10:15:00,
2013-12-19 05:30:00,41.3,31.0,30.06,South,182,3.0,13.0,67,0.01,,,0.08,0,weatherlink.com 1.10,2013-12-19 10:30:00,
2013-12-19 05:45:00,41.7,31.0,30.05,WSW,244,7.0,14.0,66,0.01,,,0.08,0,weatherlink.com 1.10,2013-12-19 10:45:00,
2013-12-19 06:00:00,41.6,31.0,30.05,SW,231,4.0,19.0,67,0.01,,,0.08,0,weatherlink.com 1.10,2013-12-19 11:00:00,
2013-12-19 06:15:00,41.5,32.0,30.05,SW,227,7.0,13.0,68,0.00,,,0.08,0,weatherlink.com 1.10,2013-12-19 11:15:00,
2013-12-19 06:30:00,41.3,31.0,30.05,SSW,213,7.0,11.0,68,0.00,,,0.08,0,weatherlink.com 1.10,2013-12-19 11:30:00,
2013-12-19 06:45:00,41.6,32.0,30.05,SW,225,7.0,10.0,69,0.00,,,0.00,0,weatherlink.com 1.10,2013-12-19 11:45:00,
2013-12-19 07:00:00,41.6,32.0,30.05,SSW,213,8.0,13.0,69,0.00,,,0.00,0,weatherlink.com 1.10,2013-12-19 12:00:00,
2013-12-19 07:15:00,42.2,33.0,30.05,SSW,209,4.0,15.0,69,0.00,,,0.00,0,weatherlink.com 1.10,2013-12-19 12:15:00,
2013-12-19 07:30:00,42.2,33.0,30.04,SSW,205,3.0,12.0,70,0.00,,,0.00,0,weatherlink.com 1.10,2013-12-19 12:30:00,
2013-12-19 07:46:00,42.3,34.0,30.05,SE,127,6.0,16.0,71,0.00,,,0.00,0,weatherlink.com 1.10,2013-12-19 12:46:00,
2013-12-19 08:01:00,43.0,34.0,30.04,WSW,247,15.0,15.0,71,0.00,,,0.00,5,weatherlink.com 1.10,2013-12-19 13:01:00,
2013-12-19 08:16:00,43.4,35.0,30.04,SW,226,8.0,14.0,71,0.01,,,0.01,12,weatherlink.com 1.10,2013-12-19 13:16:00,
2013-12-19 08:31:00,43.4,35.0,30.05,SW,226,4.0,13.0,71,0.01,,,0.01,28,weatherlink.com 1.10,2013-12-19 13:31:00,
2013-12-19 08:46:00,43.3,35.0,30.05,SSE,168,3.0,13.0,72,0.01,,,0.01,47,weatherlink.com 1.10,2013-12-19 13:46:00,
2013-12-19 09:01:00,43.9,35.0,30.05,South,191,8.0,19.0,72,0.01,,,0.01,63,weatherlink.com 1.10,2013-12-19 14:01:00,
2013-12-19 09:16:00,43.9,35.0,30.05,WSW,246,8.0,14.0,72,0.00,,,0.01,84,weatherlink.com 1.10,2013-12-19 14:16:00,
2013-12-19 09:31:00,44.3,36.0,30.06,SSW,199,10.0,16.0,72,0.00,,,0.01,149,weatherlink.com 1.10,2013-12-19 14:31:00,
2013-12-19 09:46:00,44.8,36.0,30.06,South,173,6.0,20.0,72,0.00,,,0.01,132,weatherlink.com 1.10,2013-12-19 14:46:00,
2013-12-19 10:01:00,44.9,36.0,30.06,SW,230,11.0,16.0,71,0.00,,,0.01,197,weatherlink.com 1.10,2013-12-19 15:01:00,
2013-12-19 10:16:00,45.6,37.0,30.06,SW,232,8.0,18.0,71,0.00,,,0.01,343,weatherlink.com 1.10,2013-12-19 15:16:00,
2013-12-19 10:31:00,46.1,37.0,30.06,SW,232,8.0,21.0,71,0.00,,,0.01,378,weatherlink.com 1.10,2013-12-19 15:31:00,
2013-12-19 10:46:00,46.4,37.0,30.06,SW,215,14.0,21.0,70,0.00,,,0.01,214,weatherlink.com 1.10,2013-12-19 15:46:00,
2013-12-19 11:01:00,46.8,37.0,30.06,SW,232,10.0,21.0,70,0.00,,,0.01,329,weatherlink.com 1.10,2013-12-19 16:01:00,
2013-12-19 11:31:00,47.6,38.0,30.06,South,170,11.0,18.0,69,0.00,,,0.01,264,weatherlink.com 1.10,2013-12-19 16:31:00,
2013-12-19 11:46:00,47.2,38.0,30.05,SW,220,6.0,18.0,70,0.00,,,0.01,287,weatherlink.com 1.10,2013-12-19 16:46:00,
2013-12-19 12:01:00,47.5,38.0,30.04,South,173,7.0,18.0,70,0.00,,,0.01,406,weatherlink.com 1.10,2013-12-19 17:01:00,
2013-12-19 12:16:00,48.1,38.0,30.04,SW,220,5.0,14.0,69,0.00,,,0.01,309,weatherlink.com 1.10,2013-12-19 17:16:00,
2013-12-19 12:31:00,48.9,39.0,30.03,SW,230,11.0,19.0,69,0.00,,,0.01,274,weatherlink.com 1.10,2013-12-19 17:31:00,
2013-12-19 12:46:00,49.7,40.0,30.02,SW,236,4.0,14.0,69,0.00,,,0.01,276,weatherlink.com 1.10,2013-12-19 17:46:00,
2013-12-19 13:01:00,49.7,40.0,30.02,SSW,203,7.0,12.0,70,0.00,,,0.01,262,weatherlink.com 1.10,2013-12-19 18:01:00,
2013-12-19 13:16:00,50.2,41.0,30.01,WSW,248,3.0,15.0,71,0.00,,,0.01,436,weatherlink.com 1.10,2013-12-19 18:16:00,
2013-12-19 13:31:00,50.8,41.0,30.00,SW,230,8.0,19.0,70,0.00,,,0.01,264,weatherlink.com 1.10,2013-12-19 18:31:00,
2013-12-19 13:46:00,50.5,41.0,30.00,SSW,204,2.0,15.0,71,0.00,,,0.01,232,weatherlink.com 1.10,2013-12-19 18:46:00,
2013-12-19 14:02:00,51.2,42.0,29.99,WSW,247,6.0,13.0,71,0.00,,,0.01,257,weatherlink.com 1.10,2013-12-19 19:02:00,
2013-12-19 14:17:00,51.7,43.0,29.99,WSW,244,8.0,16.0,71,0.00,,,0.01,257,weatherlink.com 1.10,2013-12-19 19:17:00,
2013-12-19 14:32:00,51.9,42.0,29.98,WSW,250,8.0,16.0,70,0.00,,,0.01,339,weatherlink.com 1.10,2013-12-19 19:32:00,
2013-12-19 14:47:00,52.0,43.0,29.99,WNW,296,4.0,15.0,71,0.00,,,0.01,171,weatherlink.com 1.10,2013-12-19 19:47:00,
2013-12-19 15:02:00,51.7,43.0,29.98,SSW,207,11.0,16.0,71,0.00,,,0.01,202,weatherlink.com 1.10,2013-12-19 20:02:00,
2013-12-19 15:17:00,52.3,43.0,29.98,WSW,244,7.0,14.0,71,0.00,,,0.01,346,weatherlink.com 1.10,2013-12-19 20:17:00,
2013-12-19 15:32:00,52.5,43.0,29.98,West,263,5.0,20.0,71,0.00,,,0.01,120,weatherlink.com 1.10,2013-12-19 20:32:00,
2013-12-19 15:47:00,52.3,43.0,29.98,SSW,207,5.0,18.0,71,0.00,,,0.01,107,weatherlink.com 1.10,2013-12-19 20:47:00,
2013-12-19 16:02:00,51.9,43.0,29.98,SSE,164,4.0,13.0,72,0.00,,,0.01,40,weatherlink.com 1.10,2013-12-19 21:02:00,
2013-12-19 16:17:00,51.7,43.0,29.98,SSW,195,6.0,11.0,73,0.00,,,0.01,30,weatherlink.com 1.10,2013-12-19 21:17:00,
2013-12-19 16:32:00,51.5,43.0,29.98,SSW,209,5.0,12.0,73,0.00,,,0.01,40,weatherlink.com 1.10,2013-12-19 21:32:00,
2013-12-19 16:47:00,51.5,43.0,29.98,SW,215,5.0,11.0,74,0.00,,,0.01,14,weatherlink.com 1.10,2013-12-19 21:47:00,
2013-12-19 17:02:00,51.4,44.0,29.97,South,171,5.0,13.0,75,0.00,,,0.01,11,weatherlink.com 1.10,2013-12-19 22:02:00,
2013-12-19 17:17:00,51.6,44.0,29.97,WSW,237,7.0,13.0,75,0.00,,,0.01,0,weatherlink.com 1.10,2013-12-19 22:17:00,
2013-12-19 17:32:00,51.7,44.0,29.97,SW,215,9.0,9.0,76,0.00,,,0.01,0,weatherlink.com 1.10,2013-12-19 22:32:00,
2013-12-19 17:47:00,51.9,45.0,29.96,South,188,2.0,12.0,76,0.00,,,0.01,0,weatherlink.com 1.10,2013-12-19 22:47:00,
2013-12-19 18:02:00,52.0,45.0,29.95,SW,215,4.0,11.0,76,0.00,,,0.01,0,weatherlink.com 1.10,2013-12-19 23:02:00,
2013-12-19 18:17:00,51.8,45.0,29.96,WNW,286,2.0,14.0,77,0.00,,,0.01,0,weatherlink.com 1.10,2013-12-19 23:17:00,
2013-12-19 18:32:00,51.9,45.0,29.95,SW,217,4.0,13.0,77,0.00,,,0.01,0,weatherlink.com 1.10,2013-12-19 23:32:00,
2013-12-19 18:47:00,52.0,45.0,29.95,SSW,211,4.0,15.0,77,0.00,,,0.01,0,weatherlink.com 1.10,2013-12-19 23:47:00,
2013-12-19 19:02:00,51.9,45.0,29.95,SW,220,4.0,11.0,76,0.00,,,0.01,0,weatherlink.com 1.10,2013-12-20 00:02:00,
2013-12-19 19:17:00,51.9,44.0,29.95,SW,227,5.0,15.0,75,0.00,,,0.01,0,weatherlink.com 1.10,2013-12-20 00:17:00,
2013-12-19 19:32:00,52.1,44.0,29.95,SSE,165,2.0,11.0,73,0.00,,,0.01,0,weatherlink.com 1.10,2013-12-20 00:32:00,
2013-12-19 19:47:00,52.0,44.0,29.94,SW,215,5.0,11.0,73,0.00,,,0.01,0,weatherlink.com 1.10,2013-12-20 00:47:00,
2013-12-19 20:02:00,52.1,43.0,29.94,SSW,209,1.0,13.0,72,0.00,,,0.01,0,weatherlink.com 1.10,2013-12-20 01:02:00,
2013-12-19 20:17:00,52.1,43.0,29.94,South,171,7.0,14.0,72,0.00,,,0.01,0,weatherlink.com 1.10,2013-12-20 01:17:00,
2013-12-19 20:32:00,52.1,44.0,29.94,South,189,2.0,12.0,73,0.00,,,0.01,0,weatherlink.com 1.10,2013-12-20 01:32:00,
2013-12-19 20:47:00,52.3,44.0,29.94,SSW,207,5.0,10.0,73,0.00,,,0.01,0,weatherlink.com 1.10,2013-12-20 01:47:00,
2013-12-19 21:02:00,52.5,44.0,29.94,SW,215,8.0,13.0,73,0.00,,,0.01,0,weatherlink.com 1.10,2013-12-20 02:02:00,
2013-12-19 21:17:00,52.5,44.0,29.93,South,182,6.0,12.0,74,0.00,,,0.01,0,weatherlink.com 1.10,2013-12-20 02:17:00,
2013-12-19 21:32:00,52.8,45.0,29.93,South,188,6.0,12.0,75,0.00,,,0.01,0,weatherlink.com 1.10,2013-12-20 02:32:00,
2013-12-19 21:47:00,53.2,45.0,29.93,SW,225,8.0,15.0,75,0.00,,,0.01,0,weatherlink.com 1.10,2013-12-20 02:47:00,
2013-12-19 22:02:00,53.4,46.0,29.93,SSW,200,8.0,24.0,75,0.00,,,0.01,0,weatherlink.com 1.10,2013-12-20 03:02:00,
2013-12-19 22:17:00,53.6,46.0,29.93,SSW,205,6.0,13.0,76,0.00,,,0.01,0,weatherlink.com 1.10,2013-12-20 03:17:00,
2013-12-19 22:32:00,54.0,47.0,29.93,SSW,203,10.0,18.0,76,0.00,,,0.01,0,weatherlink.com 1.10,2013-12-20 03:32:00,
2013-12-19 22:47:00,54.1,47.0,29.92,South,182,11.0,21.0,76,0.00,,,0.01,0,weatherlink.com 1.10,2013-12-20 03:47:00,
2013-12-19 23:02:00,54.3,47.0,29.91,SSW,201,5.0,20.0,76,0.00,,,0.01,0,weatherlink.com 1.10,2013-12-20 04:02:00,
2013-12-19 23:17:00,54.3,47.0,29.91,SSW,194,11.0,15.0,77,0.00,,,0.01,0,weatherlink.com 1.10,2013-12-20 04:17:00,
2013-12-19 23:32:00,54.2,47.0,29.91,SSE,159,9.0,22.0,77,0.00,,,0.01,0,weatherlink.com 1.10,2013-12-20 04:32:00,
2013-12-19 23:47:00,54.3,47.0,29.91,SSW,194,5.0,22.0,77,0.00,,,0.01,0,weatherlink.com 1.10,2013-12-20 04:47:00,